STARLINK-30115

decayed
NORAD ID: 57464 Int'l Des: 2023-107 Owner: SPXS Country: US Constellation: starlink
LEOCIRCULAR
グループ

STARLINK-30115について

説明を読み込み中...

高度履歴

Altitude vs Time

uPlot chart will show altitude changes over time

軌道要素

1 57464U 23107H 25149.15985586 .13314573 87865-5 66402-2 0 9993
2 57464 42.9720 34.6797 0020907 253.0988 244.9324 16.19261242102871
Epoch: May 29, 2025 • Age: 2661 hours

現在のステータス

Position data unavailable
打ち上げ日 Jul 28, 2023
運用期間 2.1 years
落下予定日 May 29, 2025
タイプ internet

技術仕様

分類 Payload
質量 730.00 kg
乾燥質量 700.00 kg
総質量 730.00 kg
長さ 0.30 m
直径 4.10 m
スパン 29.00 m
形状 Box + pan
製造者 SPXS
バスタイプ Starlink V2M
フェーズステータス Unknown Transfer Status
所有者/国 SPXS/US

大規模コンステレーション

Loading constellations...